Weather in Timoshino

Russia / Kostroma Oblast     57°50′02″N   44°25′03″E
temp.,
°C
wind,
m/s
gust,
m/s
humid.,
%
clouds,
%
prec.,
mm/h
press.,
hPa
HPBL,
m
11 may, tue
tue1100:00+4nne29972 0.0 1028189
03:00+3nne29965 0.0 1029190
06:00+5ne310895 0.0 1029254
09:00+12ne36555 0.0 1030568
12:00+16ne34420 0.0 1029875
15:00+18ene33434 0.0 1028956
18:00+17ene24625 0.0 1028139
21:00+11ene24775 0.0 102953
12 may, wed
wed1200:00+9e23905 0.0 102952
03:00+9ene22942 0.0 102919
06:00+12e24820 0.0 1030135
09:00+18e34630 0.0 1029503
12:00+23e35510 0.0 10271092
15:00+24ese464812 0.0 10261921
18:00+18e287476 0.1 1026180
21:00+15ese2586100 0.1 102687
13 may, thu
thu1300:00+14sw1185100 0.0 102623
03:00+13se117847 0.0 102611
06:00+15e2377100 0.0 102677
09:00+17ese2679100 0.1 1025294
12:00+19se376785 0.0 1024590
15:00+23se59455 0.0 10221713
18:00+18sse2767100 0.0 1021163
21:00+17se4137397 0.0 1020727
14 may, fri
fri1400:00+14se3138764 0.1 1019475
03:00+12sse299764 1.8 1020240
06:00+14ssw249534 0.0 1020190
09:00+18ssw237715 0.0 1020698
12:00+22ssw2450100 0.0 10191500
15:00+23ssw3447100 0.0 10191703
18:00+21ssw23635 0.0 1018129
21:00+15ssw1283100 0.0 101812
15 may, sat
sat1500:00+14se22920 0.0 101723
03:00+14sse229693 0.7 101836
06:00+16se3893100 0.0 1016244
09:00+21sse3771100 0.0 1015530
12:00+25s4753100 0.0 10141307
15:00+27s59415 0.0 10121635
18:00+23s5125533 0.0 10121109
21:00+18s313715 0.0 1012459